"FILENAME","TIMESTAMP","SAMPLE","STATION","LATITUDE","LONGITUDE","SAMPLE_DATE","SAMPLE_TIME","DEPTH","DEPTH_UNITS","CHLOROPHYLLQ","CHLOROPHYLLV","CHLOROPHYLLU","DENSITYQ","DENSITYV","DENSITYU","DOQ","DOV","DOU","SALINITYQ","SALINITYV","SALINITYU","SUSOQ","SUSOV","SUSOU","TEMPQ","TEMPV","TEMPU","PHQ","PHV","PHU","OGQ","OGV","OGU","XMSQ","XMSV","XMSU",
"200311WQPL.csv","2008MAY29154822","1101032060","A1",  32.65933,-117.26200,"20031101",732,1,"m","",2.7533,"ug/L","",24.1152,"sigma-t","",7.7228,"mg/L","",33.1005,"ppt","",,"","",16.7,"C","",8.141,"pH","",,"","",85,"%",
"200311WQPL.csv","2008MAY29154822","1101032061","A1",  32.65933,-117.26200,"20031101",732,12,"m","",2.9331,"ug/L","",24.1288,"sigma-t","",7.73182,"mg/L","",33.1099,"ppt","",,"","",16.7,"C","",8.14,"pH","",,"","",85,"%",
"200311WQPL.csv","2008MAY29154822","1101032062","A1",  32.65933,-117.26200,"20031101",732,18,"m","",2.9528,"ug/L","",24.179,"sigma-t","",7.56082,"mg/L","",33.1409,"ppt","",,"","",16.6,"C","",8.13,"pH","",,"","",85,"%",
"200311WQPL.csv","2008MAY29154822","1101032063","A6",  32.69267,-117.26967,"20031101",830,1,"m","",7.723,"ug/L","",23.9461,"sigma-t","",5.48332,"mg/L","",33.104,"ppt","",,"","",17.5,"C","",8.113,"pH","",,"","",79,"%",
"200311WQPL.csv","2008MAY29154822","1101032064","A6",  32.69267,-117.26967,"20031101",830,12,"m","",8.5372,"ug/L","",24.7147,"sigma-t","",6.65075,"mg/L","",33.2532,"ppt","",,"","",14.6,"C","",8.014,"pH","",,"","",87,"%",
"200311WQPL.csv","2008MAY29154822","1101032065","A6",  32.69267,-117.26967,"20031101",830,18,"m","",1.7188,"ug/L","",24.6475,"sigma-t","",6.6685,"mg/L","",33.1503,"ppt","",,"","",14.5,"C","",8.013,"pH","",,"","",86,"%",
"200311WQPL.csv","2008MAY29154822","1101032066","A7",  32.67550,-117.26683,"20031101",749,1,"m","",7.6411,"ug/L","",24.0031,"sigma-t","",5.24026,"mg/L","",32.9782,"ppt","",,"","",16.8,"C","",7.971,"pH","",,"","",78,"%",
"200311WQPL.csv","2008MAY29154822","1101032067","A7",  32.67550,-117.26683,"20031101",749,12,"m","",3.5402,"ug/L","",24.1792,"sigma-t","",6.5446,"mg/L","",33.1701,"ppt","",,"","",16.7,"C","",8.015,"pH","",,"","",83,"%",
"200311WQPL.csv","2008MAY29154822","1101032068","A7",  32.67550,-117.26683,"20031101",749,18,"m","",1.7601,"ug/L","",24.6103,"sigma-t","",6.60216,"mg/L","",33.2022,"ppt","",,"","",14.9,"C","",7.996,"pH","",,"","",85,"%",
"200311WQPL.csv","2008MAY29154822","1101032069","C4",  32.66583,-117.24967,"20031101",958,1,"m","",2.0992,"ug/L","",24.094,"sigma-t","",7.82069,"mg/L","",33.0764,"ppt","",,"","",16.8,"C","",8.145,"pH","",,"","",83,"%",
"200311WQPL.csv","2008MAY29154822","1101032070","C4",  32.66583,-117.24967,"20031101",958,3,"m","",2.4956,"ug/L","",24.1086,"sigma-t","",7.73643,"mg/L","",33.0818,"ppt","",,"","",16.7,"C","",8.142,"pH","",,"","",82,"%",
"200311WQPL.csv","2008MAY29154822","1101032071","C4",  32.66583,-117.24967,"20031101",958,9,"m","",2.6078,"ug/L","",24.1272,"sigma-t","",7.48819,"mg/L","",33.1043,"ppt","",,"","",16.7,"C","",8.125,"pH","",,"","",82,"%",
"200311WQPL.csv","2008MAY29154822","1101032072","C5",  32.67917,-117.25667,"20031101",944,1,"m","",2.1957,"ug/L","",24.0865,"sigma-t","",6.4738,"mg/L","",33.1398,"ppt","",,"","",17,"C","",7.995,"pH","",,"","",71,"%",
"200311WQPL.csv","2008MAY29154822","1101032073","C5",  32.67917,-117.25667,"20031101",944,3,"m","",2.6913,"ug/L","",24.1015,"sigma-t","",6.3637,"mg/L","",33.1364,"ppt","",,"","",16.9,"C","",7.996,"pH","",,"","",71,"%",
"200311WQPL.csv","2008MAY29154822","1101032074","C5",  32.67917,-117.25667,"20031101",944,9,"m","",1.976,"ug/L","",24.1358,"sigma-t","",5.20662,"mg/L","",33.1556,"ppt","",,"","",16.8,"C","",7.929,"pH","",,"","",65,"%",
"200311WQPL.csv","2008MAY29154822","1101032075","C6",  32.69367,-117.26133,"20031101",932,1,"m","",1.8922,"ug/L","",24.0055,"sigma-t","",6.08049,"mg/L","",33.1828,"ppt","",,"","",17.5,"C","",7.975,"pH","",,"","",68,"%",
"200311WQPL.csv","2008MAY29154822","1101032076","C6",  32.69367,-117.26133,"20031101",932,3,"m","",2.1091,"ug/L","",24.0206,"sigma-t","",5.87128,"mg/L","",33.1902,"ppt","",,"","",17.4,"C","",7.969,"pH","",,"","",68,"%",
"200311WQPL.csv","2008MAY29154822","1101032077","C6",  32.69367,-117.26133,"20031101",932,9,"m","",2.2835,"ug/L","",24.1469,"sigma-t","",3.77919,"mg/L","",33.2326,"ppt","",,"","",17,"C","",7.864,"pH","",,"","",57,"%",
"200311WQPL.csv","2008MAY29154822","1101032078","C7",  32.71633,-117.27217,"20031101",849,1,"m","",7.6535,"ug/L","",23.982,"sigma-t","",6.16527,"mg/L","",33.1782,"ppt","",,"","",17.6,"C","",8.192,"pH","",,"","",81,"%",
"200311WQPL.csv","2008MAY29154822","1101032079","C7",  32.71633,-117.27217,"20031101",849,12,"m","",5.1911,"ug/L","",24.2241,"sigma-t","",6.90726,"mg/L","",33.2204,"ppt","",,"","",16.7,"C","",8.082,"pH","",,"","",85,"%",
"200311WQPL.csv","2008MAY29154822","1101032080","C7",  32.71633,-117.27217,"20031101",849,18,"m","",.9997,"ug/L","",24.3658,"sigma-t","",4.97138,"mg/L","",33.1229,"ppt","",,"","",15.7,"C","",7.9,"pH","",,"","",84,"%",
"200311WQPL.csv","2008MAY29154822","1101032081","C8",  32.73267,-117.27333,"20031101",906,1,"m","",4.9322,"ug/L","",24.0358,"sigma-t","",7.61435,"mg/L","",33.1889,"ppt","",,"","",17.4,"C","",8.155,"pH","",,"","",80,"%",
"200311WQPL.csv","2008MAY29154822","1101032082","C8",  32.73267,-117.27333,"20031101",906,12,"m","",2.9314,"ug/L","",24.184,"sigma-t","",7.33146,"mg/L","",33.1557,"ppt","",,"","",16.6,"C","",8.107,"pH","",,"","",85,"%",
"200311WQPL.csv","2008MAY29154822","1101032083","C8",  32.73267,-117.27333,"20031101",906,18,"m","",1.9695,"ug/L","",24.3045,"sigma-t","",5.96659,"mg/L","",33.1704,"ppt","",,"","",16.2,"C","",8.022,"pH","",,"","",86,"%",
"200311WQPL.csv","2008MAY29154822","1107032220","A6",  32.69267,-117.26967,"20031107",836,1,"m","",4.4597,"ug/L","",24.2026,"sigma-t","",8.72461,"mg/L","",33.2016,"ppt","",,"","",16.7,"C","",8.219,"pH","",,"","",83,"%",
"200311WQPL.csv","2008MAY29154822","1107032221","A6",  32.69267,-117.26967,"20031107",836,12,"m","",1.794,"ug/L","",24.5291,"sigma-t","",6.55651,"mg/L","",33.179,"ppt","",,"","",15.2,"C","",8.014,"pH","",,"","",86,"%",
"200311WQPL.csv","2008MAY29154822","1107032222","A6",  32.69267,-117.26967,"20031107",836,18,"m","",.7558,"ug/L","",24.9102,"sigma-t","",6.45079,"mg/L","",33.1669,"ppt","",,"","",13.3,"C","",7.965,"pH","",,"","",88,"%",
"200311WQPL.csv","2008MAY29154822","1107032223","A7",  32.67550,-117.26683,"20031107",816,1,"m","",6.8474,"ug/L","",24.2461,"sigma-t","",8.94501,"mg/L","",33.1773,"ppt","",,"","",16.4,"C","",8.21,"pH","",,"","",81,"%",
"200311WQPL.csv","2008MAY29154822","1107032224","A7",  32.67550,-117.26683,"20031107",816,12,"m","",1.0308,"ug/L","",24.7617,"sigma-t","",6.79651,"mg/L","",33.1367,"ppt","",,"","",13.9,"C","",7.995,"pH","",,"","",89,"%",
"200311WQPL.csv","2008MAY29154822","1107032225","A7",  32.67550,-117.26683,"20031107",816,18,"m","",.8274,"ug/L","",24.8961,"sigma-t","",6.53192,"mg/L","",33.1373,"ppt","",,"","",13.3,"C","",7.968,"pH","",,"","",89,"%",
"200311WQPL.csv","2008MAY29154822","1107032226","C4",  32.66583,-117.24967,"20031107",945,1,"m","",8.2543,"ug/L","",24.1789,"sigma-t","",6.31673,"mg/L","",33.2615,"ppt","",,"","",17,"C","",8.022,"pH","",,"","",72,"%",
"200311WQPL.csv","2008MAY29154822","1107032227","C4",  32.66583,-117.24967,"20031107",945,3,"m","",8.2242,"ug/L","",24.1997,"sigma-t","",6.39943,"mg/L","",33.2644,"ppt","",,"","",16.9,"C","",8.014,"pH","",,"","",71,"%",
"200311WQPL.csv","2008MAY29154822","1107032228","C4",  32.66583,-117.24967,"20031107",945,9,"m","",1.4511,"ug/L","",24.4659,"sigma-t","",5.83404,"mg/L","",33.2115,"ppt","",,"","",15.6,"C","",7.989,"pH","",,"","",80,"%",
"200311WQPL.csv","2008MAY29154822","1107032229","C5",  32.67917,-117.25667,"20031107",935,1,"m","",7.1244,"ug/L","",24.1897,"sigma-t","",6.77467,"mg/L","",33.2352,"ppt","",,"","",16.9,"C","",8.093,"pH","",,"","",78,"%",
"200311WQPL.csv","2008MAY29154822","1107032230","C5",  32.67917,-117.25667,"20031107",935,3,"m","",7.3655,"ug/L","",24.2247,"sigma-t","",6.71584,"mg/L","",33.2465,"ppt","",,"","",16.8,"C","",8.086,"pH","",,"","",77,"%",
"200311WQPL.csv","2008MAY29154822","1107032231","C5",  32.67917,-117.25667,"20031107",935,9,"m","",.7241,"ug/L","",24.5516,"sigma-t","",6.19569,"mg/L","",33.1602,"ppt","",,"","",15,"C","",8.003,"pH","",,"","",85,"%",
"200311WQPL.csv","2008MAY29154822","1107032232","C6",  32.69367,-117.26133,"20031107",923,1,"m","",8.674,"ug/L","",24.1738,"sigma-t","",7.19848,"mg/L","",33.2129,"ppt","",,"","",16.9,"C","",8.114,"pH","",,"","",79,"%",
"200311WQPL.csv","2008MAY29154822","1107032233","C6",  32.69367,-117.26133,"20031107",923,3,"m","",7.6419,"ug/L","",24.1912,"sigma-t","",7.07455,"mg/L","",33.2199,"ppt","",,"","",16.8,"C","",8.104,"pH","",,"","",79,"%",
"200311WQPL.csv","2008MAY29154822","1107032234","C6",  32.69367,-117.26133,"20031107",923,9,"m","",.9839,"ug/L","",24.5238,"sigma-t","",5.51547,"mg/L","",33.1795,"ppt","",,"","",15.2,"C","",7.95,"pH","",,"","",83,"%",
"200311WQPL.csv","2008MAY29154822","1107032235","C7",  32.71633,-117.27217,"20031107",853,1,"m","",8.6698,"ug/L","",24.1963,"sigma-t","",9.27542,"mg/L","",33.1783,"ppt","",,"","",16.7,"C","",8.231,"pH","",,"","",77,"%",
"200311WQPL.csv","2008MAY29154822","1107032236","C7",  32.71633,-117.27217,"20031107",853,12,"m","",1.9599,"ug/L","",24.5547,"sigma-t","",6.47401,"mg/L","",33.1894,"ppt","",,"","",15.1,"C","",7.994,"pH","",,"","",84,"%",
"200311WQPL.csv","2008MAY29154822","1107032237","C7",  32.71633,-117.27217,"20031107",853,18,"m","",.7373,"ug/L","",24.8262,"sigma-t","",6.45129,"mg/L","",33.1525,"ppt","",,"","",13.7,"C","",7.969,"pH","",,"","",88,"%",
"200311WQPL.csv","2008MAY29154822","1107032238","C8",  32.73267,-117.27333,"20031107",906,1,"m","",2.0607,"ug/L","",24.2199,"sigma-t","",8.51526,"mg/L","",33.1814,"ppt","",,"","",16.6,"C","",8.185,"pH","",,"","",83,"%",
"200311WQPL.csv","2008MAY29154822","1107032239","C8",  32.73267,-117.27333,"20031107",906,12,"m","",3.9896,"ug/L","",24.5047,"sigma-t","",6.9875,"mg/L","",33.2096,"ppt","",,"","",15.4,"C","",8.053,"pH","",,"","",85,"%",
"200311WQPL.csv","2008MAY29154822","1107032240","C8",  32.73267,-117.27333,"20031107",906,18,"m","",.8071,"ug/L","",24.8082,"sigma-t","",6.64419,"mg/L","",33.1603,"ppt","",,"","",13.8,"C","",7.985,"pH","",,"","",90,"%",
"200311WQPL.csv","2008MAY29154822","1107032293","A1",  32.65933,-117.26200,"20031107",743,1,"m","",4.889,"ug/L","",24.258,"sigma-t","",8.1845,"mg/L","",33.1659,"ppt","",,"","",16.3,"C","",8.138,"pH","",,"","",83,"%",
"200311WQPL.csv","2008MAY29154822","1107032294","A1",  32.65933,-117.26200,"20031107",743,12,"m","",1.1196,"ug/L","",24.7723,"sigma-t","",6.79284,"mg/L","",33.1353,"ppt","",,"","",13.9,"C","",7.986,"pH","",,"","",89,"%",
"200311WQPL.csv","2008MAY29154822","1107032295","A1",  32.65933,-117.26200,"20031107",743,18,"m","",.8454,"ug/L","",24.9607,"sigma-t","",6.48388,"mg/L","",33.1426,"ppt","",,"","",13,"C","",7.95,"pH","",,"","",87,"%",
"200311WQPL.csv","2008MAY29154822","1112032260","A1",  32.65933,-117.26200,"20031112",920,1,"m","",2.6649,"ug/L","",24.2452,"sigma-t","",8.42203,"mg/L","",33.1651,"ppt","",,"","",16.4,"C","",8.075,"pH","",,"","",84,"%",
"200311WQPL.csv","2008MAY29154822","1112032261","A1",  32.65933,-117.26200,"20031112",920,12,"m","",1.6318,"ug/L","",24.5789,"sigma-t","",6.74811,"mg/L","",33.1737,"ppt","",,"","",14.9,"C","",7.929,"pH","",,"","",83,"%",
"200311WQPL.csv","2008MAY29154822","1112032262","A1",  32.65933,-117.26200,"20031112",920,18,"m","",1.2936,"ug/L","",24.8179,"sigma-t","",6.67572,"mg/L","",33.1602,"ppt","",,"","",13.7,"C","",7.903,"pH","",,"","",85,"%",
"200311WQPL.csv","2008MAY29154822","1112032263","A6",  32.69267,-117.26967,"20031112",1017,1,"m","",7.3128,"ug/L","",24.1817,"sigma-t","",8.00146,"mg/L","",33.1968,"ppt","",,"","",16.8,"C","",8.125,"pH","",,"","",84,"%",
"200311WQPL.csv","2008MAY29154822","1112032264","A6",  32.69267,-117.26967,"20031112",1017,12,"m","",2.1781,"ug/L","",24.5404,"sigma-t","",7.18394,"mg/L","",33.1966,"ppt","",,"","",15.2,"C","",8.022,"pH","",,"","",86,"%",
"200311WQPL.csv","2008MAY29154822","1112032265","A6",  32.69267,-117.26967,"20031112",1017,18,"m","",1.3816,"ug/L","",24.7516,"sigma-t","",6.84593,"mg/L","",33.1398,"ppt","",,"","",14,"C","",7.957,"pH","",,"","",88,"%",
"200311WQPL.csv","2008MAY29154822","1112032266","A7",  32.67550,-117.26683,"20031112",953,1,"m","",2.79,"ug/L","",24.1921,"sigma-t","",8.04691,"mg/L","",33.1804,"ppt","",,"","",16.7,"C","",8.116,"pH","",,"","",85,"%",
"200311WQPL.csv","2008MAY29154822","1112032267","A7",  32.67550,-117.26683,"20031112",953,12,"m","",1.4716,"ug/L","",24.477,"sigma-t","",6.91243,"mg/L","",33.1813,"ppt","",,"","",15.4,"C","",8.004,"pH","",,"","",86,"%",
"200311WQPL.csv","2008MAY29154822","1112032268","A7",  32.67550,-117.26683,"20031112",953,18,"m","",1.2514,"ug/L","",24.7247,"sigma-t","",6.72385,"mg/L","",33.1494,"ppt","",,"","",14.2,"C","",7.95,"pH","",,"","",87,"%",
"200311WQPL.csv","2008MAY29154822","1112032269","C4",  32.66583,-117.24967,"20031112",1143,1,"m","",3.943,"ug/L","",24.2186,"sigma-t","",7.93139,"mg/L","",33.1914,"ppt","",,"","",16.6,"C","",8.069,"pH","",,"","",76,"%",
"200311WQPL.csv","2008MAY29154822","1112032270","C4",  32.66583,-117.24967,"20031112",1143,3,"m","",2.3644,"ug/L","",24.2551,"sigma-t","",7.80745,"mg/L","",33.1765,"ppt","",,"","",16.4,"C","",8.08,"pH","",,"","",78,"%",
"200311WQPL.csv","2008MAY29154822","1112032271","C4",  32.66583,-117.24967,"20031112",1143,9,"m","",1.6854,"ug/L","",24.3408,"sigma-t","",6.19688,"mg/L","",33.1797,"ppt","",,"","",16,"C","",7.981,"pH","",,"","",78,"%",
"200311WQPL.csv","2008MAY29154822","1112032272","C5",  32.67917,-117.25667,"20031112",1131,1,"m","",7.5344,"ug/L","",24.1386,"sigma-t","",7.06046,"mg/L","",33.1762,"ppt","",,"","",16.9,"C","",7.996,"pH","",,"","",63,"%",
"200311WQPL.csv","2008MAY29154822","1112032273","C5",  32.67917,-117.25667,"20031112",1131,3,"m","",4.0005,"ug/L","",24.1711,"sigma-t","",6.96772,"mg/L","",33.1815,"ppt","",,"","",16.8,"C","",8.016,"pH","",,"","",66,"%",
"200311WQPL.csv","2008MAY29154822","1112032274","C5",  32.67917,-117.25667,"20031112",1131,9,"m","",1.0436,"ug/L","",24.3959,"sigma-t","",4.50028,"mg/L","",33.2044,"ppt","",,"","",15.9,"C","",7.856,"pH","",,"","",73,"%",
"200311WQPL.csv","2008MAY29154822","1112032275","C6",  32.69367,-117.26133,"20031112",1122,1,"m","",2.5593,"ug/L","",24.0943,"sigma-t","",8.15068,"mg/L","",33.172,"ppt","",,"","",17.1,"C","",8.072,"pH","",,"","",69,"%",
"200311WQPL.csv","2008MAY29154822","1112032276","C6",  32.69367,-117.26133,"20031112",1122,3,"m","",4.5623,"ug/L","",24.128,"sigma-t","",8.5542,"mg/L","",33.1765,"ppt","",,"","",16.9,"C","",8.121,"pH","",,"","",71,"%",
"200311WQPL.csv","2008MAY29154822","1112032277","C6",  32.69367,-117.26133,"20031112",1122,9,"m","",1.6101,"ug/L","",24.4795,"sigma-t","",5.23167,"mg/L","",33.2111,"ppt","",,"","",15.5,"C","",8.004,"pH","",,"","",81,"%",
"200311WQPL.csv","2008MAY29154822","1112032278","C7",  32.71633,-117.27217,"20031112",1043,1,"m","",8.5224,"ug/L","",24.1415,"sigma-t","",8.24971,"mg/L","",33.1812,"ppt","",,"","",16.9,"C","",8.15,"pH","",,"","",79,"%",
"200311WQPL.csv","2008MAY29154822","1112032279","C7",  32.71633,-117.27217,"20031112",1043,12,"m","",2.5953,"ug/L","",24.4456,"sigma-t","",7.06305,"mg/L","",33.182,"ppt","",,"","",15.6,"C","",8.039,"pH","",,"","",86,"%",
"200311WQPL.csv","2008MAY29154822","1112032280","C7",  32.71633,-117.27217,"20031112",1043,18,"m","",1.1069,"ug/L","",24.7262,"sigma-t","",6.37704,"mg/L","",33.1625,"ppt","",,"","",14.2,"C","",7.932,"pH","",,"","",86,"%",
"200311WQPL.csv","2008MAY29154822","1112032281","C8",  32.73267,-117.27333,"20031112",1059,1,"m","",3.7233,"ug/L","",24.1493,"sigma-t","",8.64811,"mg/L","",33.1747,"ppt","",,"","",16.8,"C","",8.173,"pH","",,"","",79,"%",
"200311WQPL.csv","2008MAY29154822","1112032282","C8",  32.73267,-117.27333,"20031112",1059,12,"m","",1.7457,"ug/L","",24.7274,"sigma-t","",6.33993,"mg/L","",33.2371,"ppt","",,"","",14.5,"C","",7.938,"pH","",,"","",86,"%",
"200311WQPL.csv","2008MAY29154822","1112032283","C8",  32.73267,-117.27333,"20031112",1059,18,"m","",1.1165,"ug/L","",24.7596,"sigma-t","",6.516,"mg/L","",33.1601,"ppt","",,"","",14,"C","",7.937,"pH","",,"","",85,"%",
"200311WQPL.csv","2008MAY29154822","1118032313","A1",  32.65933,-117.26200,"20031118",808,1,"m","",8.8404,"ug/L","",24.3359,"sigma-t","",8.51068,"mg/L","",33.1522,"ppt","",,"","",16,"C","",8.131,"pH","",,"","",78,"%",
"200311WQPL.csv","2008MAY29154822","1118032314","A1",  32.65933,-117.26200,"20031118",808,12,"m","",9.732,"ug/L","",24.3649,"sigma-t","",7.6873,"mg/L","",33.1527,"ppt","",,"","",15.8,"C","",8.083,"pH","",,"","",79,"%",
"200311WQPL.csv","2008MAY29154822","1118032315","A1",  32.65933,-117.26200,"20031118",808,18,"m","",1.721,"ug/L","",24.7645,"sigma-t","",6.30071,"mg/L","",33.2143,"ppt","",,"","",14.2,"C","",7.951,"pH","",,"","",86,"%",
"200311WQPL.csv","2008MAY29154822","1118032316","A6",  32.69267,-117.26967,"20031118",923,1,"m","",11.286,"ug/L","",24.3096,"sigma-t","",8.62401,"mg/L","",33.1841,"ppt","",,"","",16.2,"C","",8.2,"pH","",,"","",70,"%",
"200311WQPL.csv","2008MAY29154822","1118032317","A6",  32.69267,-117.26967,"20031118",923,12,"m","",1.1732,"ug/L","",24.8159,"sigma-t","",6.18993,"mg/L","",33.2269,"ppt","",,"","",14,"C","",7.971,"pH","",,"","",86,"%",
"200311WQPL.csv","2008MAY29154822","1118032318","A6",  32.69267,-117.26967,"20031118",923,18,"m","",.8765,"ug/L","",24.941,"sigma-t","",5.941,"mg/L","",33.2065,"ppt","",,"","",13.3,"C","",7.935,"pH","",,"","",86,"%",
"200311WQPL.csv","2008MAY29154822","1118032319","A7",  32.67550,-117.26683,"20031118",854,1,"m","",10.1989,"ug/L","",24.3031,"sigma-t","",8.75121,"mg/L","",33.1702,"ppt","",,"","",16.2,"C","",8.193,"pH","",,"","",73,"%",
"200311WQPL.csv","2008MAY29154822","1118032320","A7",  32.67550,-117.26683,"20031118",854,12,"m","",5.7421,"ug/L","",24.4143,"sigma-t","",7.31779,"mg/L","",33.1827,"ppt","",,"","",15.7,"C","",8.112,"pH","",,"","",78,"%",
"200311WQPL.csv","2008MAY29154822","1118032321","A7",  32.67550,-117.26683,"20031118",854,18,"m","",1.274,"ug/L","",24.8521,"sigma-t","",5.86103,"mg/L","",33.2309,"ppt","",,"","",13.8,"C","",7.95,"pH","",,"","",83,"%",
"200311WQPL.csv","2008MAY29154822","1118032322","C4",  32.66583,-117.24967,"20031118",1056,1,"m","",1.701,"ug/L","",24.3042,"sigma-t","",7.06031,"mg/L","",33.2311,"ppt","",,"","",16.4,"C","",7.996,"pH","",,"","",48,"%",
"200311WQPL.csv","2008MAY29154822","1118032323","C4",  32.66583,-117.24967,"20031118",1056,3,"m","",2.0308,"ug/L","",24.3213,"sigma-t","",7.09037,"mg/L","",33.2224,"ppt","",,"","",16.3,"C","",8.002,"pH","",,"","",50,"%",
"200311WQPL.csv","2008MAY29154822","1118032324","C4",  32.66583,-117.24967,"20031118",1056,9,"m","",.8465,"ug/L","",24.5711,"sigma-t","",5.64607,"mg/L","",33.2103,"ppt","",,"","",15.1,"C","",7.969,"pH","",,"","",71,"%",
"200311WQPL.csv","2008MAY29154822","1118032325","C5",  32.67917,-117.25667,"20031118",1045,1,"m","",1.602,"ug/L","",24.1972,"sigma-t","",6.41772,"mg/L","",33.2272,"ppt","",,"","",16.8,"C","",7.996,"pH","",,"","",58,"%",
"200311WQPL.csv","2008MAY29154822","1118032326","C5",  32.67917,-117.25667,"20031118",1045,3,"m","",1.7896,"ug/L","",24.2836,"sigma-t","",6.20491,"mg/L","",33.2334,"ppt","",,"","",16.5,"C","",7.97,"pH","",,"","",57,"%",
"200311WQPL.csv","2008MAY29154822","1118032327","C5",  32.67917,-117.25667,"20031118",1045,9,"m","",1.0526,"ug/L","",24.4344,"sigma-t","",4.86132,"mg/L","",33.23,"ppt","",,"","",15.8,"C","",7.986,"pH","",,"","",70,"%",
"200311WQPL.csv","2008MAY29154822","1118032328","C6",  32.69367,-117.26133,"20031118",1032,1,"m","",2.1904,"ug/L","",24.2399,"sigma-t","",6.64713,"mg/L","",33.1872,"ppt","",,"","",16.5,"C","",8.036,"pH","",,"","",66,"%",
"200311WQPL.csv","2008MAY29154822","1118032329","C6",  32.69367,-117.26133,"20031118",1032,3,"m","",2.9479,"ug/L","",24.2791,"sigma-t","",6.60224,"mg/L","",33.1958,"ppt","",,"","",16.4,"C","",8.061,"pH","",,"","",69,"%",
"200311WQPL.csv","2008MAY29154822","1118032330","C6",  32.69367,-117.26133,"20031118",1032,9,"m","",.7833,"ug/L","",24.4697,"sigma-t","",5.16995,"mg/L","",33.1843,"ppt","",,"","",15.5,"C","",7.947,"pH","",,"","",64,"%",
"200311WQPL.csv","2008MAY29154822","1118032331","C7",  32.71633,-117.27217,"20031118",953,1,"m","",6.2437,"ug/L","",24.2405,"sigma-t","",8.64211,"mg/L","",33.1926,"ppt","",,"","",16.5,"C","",8.219,"pH","",,"","",77,"%",
"200311WQPL.csv","2008MAY29154822","1118032332","C7",  32.71633,-117.27217,"20031118",953,12,"m","",1.8992,"ug/L","",24.5738,"sigma-t","",6.40984,"mg/L","",33.1893,"ppt","",,"","",15,"C","",8.045,"pH","",,"","",87,"%",
"200311WQPL.csv","2008MAY29154822","1118032333","C7",  32.71633,-117.27217,"20031118",953,18,"m","",.9242,"ug/L","",24.7055,"sigma-t","",5.70417,"mg/L","",33.1509,"ppt","",,"","",14.3,"C","",7.946,"pH","",,"","",82,"%",
"200311WQPL.csv","2008MAY29154822","1118032334","C8",  32.73267,-117.27333,"20031118",1009,1,"m","",1.9441,"ug/L","",24.2254,"sigma-t","",8.16594,"mg/L","",33.206,"ppt","",,"","",16.6,"C","",8.175,"pH","",,"","",85,"%",
"200311WQPL.csv","2008MAY29154822","1118032335","C8",  32.73267,-117.27333,"20031118",1009,12,"m","",3.5867,"ug/L","",24.4995,"sigma-t","",7.08416,"mg/L","",33.1872,"ppt","",,"","",15.3,"C","",8.079,"pH","",,"","",85,"%",
"200311WQPL.csv","2008MAY29154822","1118032336","C8",  32.73267,-117.27333,"20031118",1009,18,"m","",1.7348,"ug/L","",24.7786,"sigma-t","",6.29915,"mg/L","",33.1695,"ppt","",,"","",14,"C","",7.978,"pH","",,"","",84,"%",
"200311WQPL.csv","2008MAY29154822","1123032353","A1",  32.65933,-117.26200,"20031123",806,1,"m","",3.2386,"ug/L","",24.56,"sigma-t","",7.49719,"mg/L","",33.1381,"ppt","",,"","",14.9,"C","",8.078,"pH","",,"","",85,"%",
"200311WQPL.csv","2008MAY29154822","1123032354","A1",  32.65933,-117.26200,"20031123",806,12,"m","",2.1829,"ug/L","",24.7367,"sigma-t","",6.69996,"mg/L","",33.146,"ppt","",,"","",14.1,"C","",8.008,"pH","",,"","",87,"%",
"200311WQPL.csv","2008MAY29154822","1123032355","A1",  32.65933,-117.26200,"20031123",806,18,"m","",1.6314,"ug/L","",25.1082,"sigma-t","",6.08144,"mg/L","",33.2356,"ppt","",,"","",12.6,"C","",7.938,"pH","",,"","",86,"%",
"200311WQPL.csv","2008MAY29154822","1123032356","A6",  32.69267,-117.26967,"20031123",822,1,"m","",12.032,"ug/L","",24.4905,"sigma-t","",8.80643,"mg/L","",33.1853,"ppt","",,"","",15.4,"C","",8.21,"pH","",,"","",73,"%",
"200311WQPL.csv","2008MAY29154822","1123032357","A6",  32.69267,-117.26967,"20031123",822,12,"m","",7.1526,"ug/L","",24.5869,"sigma-t","",7.5333,"mg/L","",33.1496,"ppt","",,"","",14.8,"C","",8.089,"pH","",,"","",81,"%",
"200311WQPL.csv","2008MAY29154822","1123032358","A6",  32.69267,-117.26967,"20031123",822,18,"m","",2.4107,"ug/L","",24.7104,"sigma-t","",6.67834,"mg/L","",33.1359,"ppt","",,"","",14.2,"C","",8.013,"pH","",,"","",88,"%",
"200311WQPL.csv","2008MAY29154822","1123032362","C4",  32.66583,-117.24967,"20031123",937,1,"m","",3.5619,"ug/L","",24.5498,"sigma-t","",7.31574,"mg/L","",33.1704,"ppt","",,"","",15.1,"C","",8.067,"pH","",,"","",79,"%",
"200311WQPL.csv","2008MAY29154822","1123032363","C4",  32.66583,-117.24967,"20031123",937,3,"m","",4.1877,"ug/L","",24.5602,"sigma-t","",7.24493,"mg/L","",33.1685,"ppt","",,"","",15,"C","",8.066,"pH","",,"","",79,"%",
"200311WQPL.csv","2008MAY29154822","1123032364","C4",  32.66583,-117.24967,"20031123",937,9,"m","",1.7457,"ug/L","",24.6188,"sigma-t","",6.45052,"mg/L","",33.1589,"ppt","",,"","",14.7,"C","",8.014,"pH","",,"","",81,"%",
"200311WQPL.csv","2008MAY29154822","1123032365","C5",  32.67917,-117.25667,"20031123",927,1,"m","",2.6119,"ug/L","",24.4686,"sigma-t","",6.8294,"mg/L","",33.1954,"ppt","",,"","",15.5,"C","",8.058,"pH","",,"","",77,"%",
"200311WQPL.csv","2008MAY29154822","1123032366","C5",  32.67917,-117.25667,"20031123",927,3,"m","",3.2498,"ug/L","",24.4848,"sigma-t","",6.73297,"mg/L","",33.2001,"ppt","",,"","",15.5,"C","",8.066,"pH","",,"","",77,"%",